FW9543 Weather Reports


Display with metric or nautical units.
time (UTC)temp
F
wind
direction
speed
MPH
gust
MPH
rain 1hr
in
rain 24hr
in
rain mn
in
humidity
%
barometer
mb
20260505010110 46 28 11.0 17.0 0.00 0.00 0.00 50 1011.9
20260505005551 46 23 8.0 19.0 0.00 0.00 0.00 50 1011.8
20260505005051 46 15 10.0 19.0 0.00 0.00 0.00 50 1011.7
20260505004551 46 5 11.0 17.0 0.00 0.00 0.00 49 1011.8
20260505004050 47 347 11.0 21.0 0.00 0.00 0.00 49 1011.6
20260505003549 47 29 11.0 16.0 0.00 0.00 0.00 50 1011.7
20260505003053 48 350 10.0 16.0 0.00 0.00 0.00 50 1011.6
20260505002548 48 360 10.0 15.0 0.00 0.00 0.00 52 1011.5
20260505002048 48 22 8.0 16.0 0.00 0.00 0.00 52 1011.6
20260505001548 49 22 11.0 16.0 0.00 0.00 0.00 51 1011.7
20260505001051 49 13 9.0 17.0 0.00 0.00 0.00 52 1011.5
20260505000549 49 5 9.0 17.0 0.00 0.00 0.00 52 1011.5
20260505000049 49 13 10.0 15.0 0.00 0.00 0.00 51 1011.6
20260504235548 49 347 9.0 14.0 0.00 0.00 0.00 51 1011.5
20260504235048 50 9 7.0 17.0 0.00 0.00 0.00 51 1011.4
20260504234547 50 21 12.0 17.0 0.00 0.00 0.00 51 1011.4
20260504234047 50 347 11.0 16.0 0.00 0.00 0.00 51 1011.4
20260504233549 50 5 8.0 16.0 0.00 0.00 0.00 50 1011.4
20260504233047 50 340 8.0 16.0 0.00 0.00 0.00 50 1011.4
20260504232547 51 355 11.0 16.0 0.00 0.00 0.00 50 1011.4
20260504232046 51 62 6.0 14.0 0.00 0.00 0.00 50 1011.4
20260504231548 50 69 7.0 17.0 0.00 0.00 0.00 52 1011.4
20260504231046 50 55 9.0 17.0 0.00 0.00 0.00 51 1011.3
20260504230549 50 28 6.0 14.0 0.00 0.00 0.00 51 1011.4
20260504230048 50 35 8.0 17.0 0.00 0.00 0.00 51 1011.3
20260504225545 50 360 8.0 18.0 0.00 0.00 0.00 51 1011.4
20260504225045 51 25 10.0 18.0 0.00 0.00 0.00 49 1011.3
20260504224545 51 30 7.0 18.0 0.00 0.00 0.00 51 1011.2
20260504224045 50 18 9.0 18.0 0.00 0.00 0.00 51 1011.2
20260504223546 50 5 10.0 18.0 0.00 0.00 0.00 51 1011.2
20260504223058 50 37 6.0 18.0 0.00 0.00 0.00 52 1010.9
20260504222547 49 46 12.0 18.0 0.00 0.00 0.00 52 1011.2
20260504222043 49 348 12.0 17.0 0.00 0.00 0.00 51 1011.2
20260504221645 50 13 9.0 18.0 0.00 0.00 0.00 50 1011.2
20260504221043 50 355 13.0 18.0 0.00 0.00 0.00 50 1011.1
20260504220543 51 17 11.0 18.0 0.00 0.00 0.00 49 1011.0
20260504220043 51 355 9.0 17.0 0.00 0.00 0.00 48 1011.1
20260504215543 52 355 9.0 21.0 0.00 0.00 0.00 47 1011.2
20260504215045 52 355 11.0 21.0 0.00 0.00 0.00 48 1011.2
20260504214542 52 360 13.0 18.0 0.00 0.00 0.00 48 1011.2
20260504214042 52 5 11.0 18.0 0.00 0.00 0.00 47 1011.3
20260504213541 53 317 10.0 18.0 0.00 0.00 0.00 47 1011.3
20260504213058 52 351 11.0 18.0 0.00 0.00 0.00 48 1011.1
20260504212541 53 5 9.0 18.0 0.00 0.00 0.00 47 1011.2
20260504212044 52 32 9.0 17.0 0.00 0.00 0.00 48 1011.3
20260504211546 51 54 10.0 23.0 0.00 0.00 0.00 49 1011.2
20260504211039 52 360 14.0 23.0 0.00 0.00 0.00 46 1011.4
20260504210540 54 315 13.0 20.0 0.00 0.00 0.00 45 1011.2
20260504210039 53 13 9.0 20.0 0.00 0.00 0.00 47 1011.2
20260504205542 54 349 12.0 20.0 0.00 0.00 0.00 45 1011.3
20260504205038 54 332 14.0 21.0 0.00 0.00 0.00 45 1011.3
20260504204537 55 315 11.0 21.0 0.00 0.00 0.00 46 1011.2
20260504204038 54 5 14.0 21.0 0.00 0.00 0.00 46 1011.2
20260504203536 54 329 11.0 18.0 0.00 0.00 0.00 46 1011.1
20260504203046 53 341 10.0 18.0 0.00 0.00 0.00 48 1011.2
20260504202536 52 342 11.0 21.0 0.00 0.00 0.00 47 1011.3
20260504202035 54 25 12.0 21.0 0.00 0.00 0.00 47 1011.3
20260504201535 53 319 11.0 21.0 0.00 0.00 0.00 48 1011.2
20260504201038 53 360 11.0 21.0 0.00 0.00 0.00 47 1011.2
20260504200535 53 360 11.0 18.0 0.00 0.00 0.00 47 1011.3
20260504200035 53 321 10.0 18.0 0.00 0.00 0.00 48 1011.3
20260504195534 53 346 11.0 19.0 0.00 0.00 0.00 47 1011.4
20260504195034 53 342 11.0 19.0 0.00 0.00 0.00 48 1011.4
20260504194541 54 16 13.0 19.0 0.00 0.00 0.00 47 1011.5
20260504194034 53 315 10.0 16.0 0.00 0.00 0.00 47 1011.4
20260504193536 53 336 8.0 17.0 0.00 0.00 0.00 47 1011.4
20260504193032 54 355 8.0 17.0 0.00 0.00 0.00 47 1011.3
20260504192530 54 310 8.0 19.0 0.00 0.00 0.00 46 1011.3
20260504192035 53 24 7.0 16.0 0.00 0.00 0.00 48 1011.2
20260504191537 53 302 11.0 16.0 0.00 0.00 0.00 48 1011.4
20260504191030 52 17 10.0 16.0 0.00 0.00 0.00 51 1011.5
20260504190530 52 330 3.0 10.0 0.00 0.00 0.00 52 1011.5
20260504190029 52 63 1.0 6.0 0.00 0.00 0.00 52 1011.5
20260504185530 52 56 3.0 8.0 0.00 0.00 0.00 51 1011.5
20260504185035 52 22 1.0 8.0 0.00 0.00 0.00 51 1011.5
20260504184530 52 77 3.0 9.0 0.00 0.00 0.00 52 1011.5
20260504184033 52 53 4.0 13.0 0.00 0.00 0.00 52 1011.5
20260504183527 52 313 5.0 11.0 0.00 0.00 0.00 52 1011.5
20260504183028 52 11 4.0 12.0 0.00 0.00 0.00 51 1011.6
20260504182527 51 71 4.0 13.0 0.00 0.00 0.00 55 1011.6
20260504182027 51 54 7.0 13.0 0.00 0.00 0.00 53 1012.2
20260504181527 50 33 3.0 10.0 0.00 0.00 0.00 53 1011.8
20260504181033 50 81 3.0 11.0 0.00 0.00 0.00 54 1011.9
20260504180528 50 17 5.0 11.0 0.00 0.00 0.00 56 1011.8
20260504180028 50 27 7.0 12.0 0.00 0.00 0.00 54 1011.8
20260504175528 50 41 7.0 12.0 0.00 0.00 0.00 54 1011.9
20260504175026 50 70 6.0 15.0 0.00 0.00 0.00 54 1012.0
20260504174526 50 9 9.0 15.0 0.00 0.00 0.00 55 1011.9
20260504174026 49 30 6.0 13.0 0.00 0.00 0.00 58 1011.7
20260504173525 48 84 7.0 14.0 0.00 0.00 0.00 57 1011.3
20260504173024 48 44 8.0 14.0 0.00 0.00 0.00 55 1011.4
20260504172523 48 65 5.0 11.0 0.00 0.00 0.00 55 1011.9
20260504172023 49 61 4.0 13.0 0.00 0.00 0.00 54 1012.0
20260504171530 50 84 6.0 15.0 0.00 0.00 0.00 53 1011.8
20260504171023 50 51 10.0 15.0 0.00 0.00 0.00 56 1011.8
20260504170521 48 48 7.0 14.0 0.00 0.00 0.00 58 1011.9
20260504151011 48 39 12.0 22.0 0.00 0.00 0.00 56 1010.5
20260504150512 48 71 14.0 24.0 0.00 0.00 0.00 58 1010.3
20260504141006 47 53 7.0 18.0 0.00 0.00 0.00 62 1010.3
20260504140504 48 59 11.0 18.0 0.00 0.00 0.00 59 1010.3
20260504130559 53 273 6.0 10.0 0.00 0.00 0.00 47 1008.7
20260504130159 53 273 6.0 10.0 0.00 0.00 0.00 46 1008.6
20260504110544 48 257 6.0 8.0 0.00 0.00 0.00 54 1008.5
20260504100538 48 257 6.0 9.0 0.00 0.00 0.00 54 1008.6
20260504081529 48 256 5.0 8.0 0.00 0.00 0.00 55 1009.4
20260504081029 48 256 5.0 9.0 0.00 0.00 0.00 56 1009.5
20260504080525 48 267 6.0 9.0 0.00 0.00 0.00 56 1009.6
20260504050600 45 257 3.0 6.0 0.00 0.00 0.00 68 1010.4
20260504045558 44 250 3.0 5.0 0.00 0.00 0.00 70 1010.5
20260504045057 43 240 2.0 4.0 0.00 0.00 0.00 71 1010.5
20260504044557 44 224 2.0 3.0 0.00 0.00 0.00 69 1010.5
20260504044056 44 194 0.0 2.0 0.00 0.00 0.00 68 1010.7
20260504043556 45 194 0.0 2.0 0.00 0.00 0.00 68 1010.7
20260504043110 45 188 0.0 0.0 0.00 0.00 0.00 68 1010.7
20260504042558 45 188 0.0 0.0 0.00 0.00 0.00 69 1010.7
20260504042056 45 188 0.0 0.0 0.00 0.00 0.00 70 1010.7
20260504041554 44 188 0.0 0.0 0.00 0.00 0.00 71 1010.9
20260504041055 44 188 0.0 0.0 0.00 0.00 0.00 71 1010.8
20260504040554 44 188 0.0 0.0 0.00 0.00 0.00 72 1010.8
20260504040113 43 188 0.0 0.0 0.00 0.00 0.00 73 1010.8
20260504035553 44 187 0.0 0.0 0.00 0.00 0.00 73 1010.8
20260504035054 44 187 0.0 0.0 0.00 0.00 0.00 74 1010.9
20260504034554 44 187 0.0 0.0 0.00 0.00 0.00 76 1010.8
20260504034053 43 187 0.0 0.0 0.00 0.00 0.00 75 1010.8
20260504033553 43 187 0.0 0.0 0.00 0.00 0.00 76 1010.9
20260504033052 43 187 0.0 0.0 0.00 0.00 0.00 75 1010.9
20260504032552 43 187 0.0 2.0 0.00 0.00 0.00 73 1010.9
20260504032053 44 187 0.0 4.0 0.00 0.00 0.00 72 1010.9
20260504031557 44 187 0.0 4.0 0.00 0.00 0.00 71 1010.9
20260504031053 44 182 0.0 0.0 0.00 0.00 0.00 71 1010.8
20260504030551 44 184 0.0 0.0 0.00 0.00 0.00 72 1010.8
20260504030051 44 184 0.0 0.0 0.00 0.00 0.00 72 1010.9
20260504025551 45 184 0.0 0.0 0.00 0.00 0.00 73 1010.9
20260504025052 45 184 0.0 0.0 0.00 0.00 0.00 73 1010.8
20260504024551 45 184 0.0 0.0 0.00 0.00 0.00 72 1010.8
20260504024050 45 184 0.0 0.0 0.00 0.00 0.00 72 1010.8
20260504023549 46 184 0.0 0.0 0.00 0.00 0.00 71 1010.8
20260504023058 46 184 0.0 0.0 0.00 0.00 0.00 71 1010.8
20260504022552 46 184 0.0 0.0 0.00 0.00 0.00 70 1010.9
20260504022048 47 184 0.0 0.0 0.00 0.00 0.00 70 1010.9
20260504021551 47 184 0.0 0.0 0.00 0.00 0.00 70 1010.9
20260504021047 47 184 0.0 0.0 0.00 0.00 0.00 68 1010.9
20260504020547 48 184 0.0 0.0 0.00 0.00 0.00 68 1010.9
20260504020048 48 184 0.0 0.0 0.00 0.00 0.00 68 1010.9
20260504015547 49 184 0.0 1.0 0.00 0.00 0.00 67 1010.8
20260504015047 50 184 0.0 2.0 0.00 0.00 0.00 66 1010.9
20260504014558 51 184 0.0 4.0 0.00 0.00 0.00 64 1010.9
20260504014046 52 184 1.0 4.0 0.00 0.00 0.00 62 1011.0
20260504013546 54 176 2.0 4.0 0.00 0.00 0.00 60 1011.0
20260504013046 55 69 0.0 0.0 0.00 0.00 0.00 59 1011.0
20260504012545 55 69 0.0 0.0 0.00 0.00 0.00 58 1011.0
20260504012045 55 69 0.0 0.0 0.00 0.00 0.00 58 1011.1
20260504011545 55 69 0.0 0.0 0.00 0.00 0.00 59 1011.1
20260504011044 55 69 0.0 0.0 0.00 0.00 0.00 59 1011.1
20260504010543 55 69 0.0 0.0 0.00 0.00 0.00 58 1011.2